Погода в Маканшы

Казахстан     46°46′53″N   82°01′25″E
темп.,
°C
ветер,
м/с
пор.,
м/с
влажн.,
%
обл.,
%
осадки,
мм/ч
давл.,
гПа
погр.,
м
25 февраля, чт
чт2500:00−1з2598100 2.0 1020209
03:00−3с1296100 0.1 101821
06:00−4зсз101590100 2.6 1021799
09:00−7зсз81479100 1.4 10271183
12:00−9зсз61280100 1.4 1030859
15:00−9сз41175100 0.0 10311285
18:00−12сз0184100 0.0 103231
21:00−13вюв338880 0.0 103431
26 февраля, пт
пт2600:00−14ююв129488 0.1 103523
03:00−13ююз1296100 0.4 103648
06:00−14з2297100 0.9 103835
09:00−13ссз2395100 0.3 1039191
12:00−12с2390100 0.7 1039324
15:00−12ссв3487100 0.2 1038330
18:00−14ссв3481100 0.2 103954
21:00−15св3375100 0.0 104129
27 февраля, сб
сб2700:00−16всв3376100 0.0 104039
03:00−17всв337699 0.0 103932
06:00−18всв337590 0.0 103933
09:00−16в357724 0.0 103879
12:00−11в467550 0.0 1036237
15:00−10вюв2378100 0.0 1036235
18:00−13в2279100 0.0 103721
21:00−13в227695 0.0 103821
28 февраля, вс
вс2800:00−13в237197 0.0 103827
03:00−13в337284 0.0 103832
06:00−13в457392 0.0 103874
09:00−12в477196 0.0 1038129
12:00−8вюв596877 0.0 1034341
15:00−6вюв497333 0.0 1032315
18:00−10юв337923 0.0 103223
21:00−12юв228070 0.0 103222
1 марта, пн
пн100:00−13вюв127449 0.0 103022
03:00−12ююв237172 0.0 102923
06:00−11вюв236872 0.0 102825
09:00−10юв237067 0.0 102747
12:00−6в127178 0.0 1025129
15:00−4юв127288 0.0 1024160
18:00−7в126993 0.0 102421
21:00−7в2263100 0.0 102521